Gustavus, AK

12:03 PM AKDT on May 20, 2018 (GMT -0800)
Gustavus

Weather History for PAGS - January, 2011

Change the Weather History Date:

Thursday, January 27, 2011

  Actual Average Record
Temperature  
Mean Temperature 34 °F -  
Max Temperature 37 °F 32 °F 51 °F (2016)
Min Temperature 30 °F 18 °F -12 °F (1951)
Degree Days  
Heating Degree Days 32    
Moisture  
Dew Point 31 °F    
Average Humidity 85    
Maximum Humidity 93    
Minimum Humidity 75    
Precipitation  
Precipitation 0.00 in - - ()
Sea Level Pressure  
Sea Level Pressure 30.00 in    
Wind  
Wind Speed 3 mph (South)    
Max Wind Speed 9 mph    
Max Gust Speed 17 mph    
Visibility 9 miles    
Events      
Averages and records for this station are not official NWS values.
T = Trace of Precipitation, MM = Missing Value Source: NWS Daily Summary

Daily Weather History Graph

Daily Weather History Graph

Search for Another Location

Airport or City:

Astronomy

Jan. 27, 2011 Rise Set
Actual Time 8:18 AM AKST 4:13 PM AKST
Civil Twilight 7:33 AM AKST 4:58 PM AKST
Nautical Twilight 6:43 AM AKST 5:48 PM AKST
Astronomical Twilight 5:57 AM AKST 6:34 PM AKST
Moon 3:17 AM AKST (1/27) 10:12 AM AKST (1/27)
Length of Visible Light 9h 25m
Length of Day
7h 54m
Waning Crescent, 36% of the Moon is Illuminated
Jan 27
Waning Crescent
Feb 2
New
Feb 10
First Quarter
Feb 17
Full
Feb 24
Last Quarter

Hourly Weather History & Observations

Time (AKST) Temp. Windchill Dew Point Humidity Pressure Visibility Wind Dir Wind Speed Gust Speed Precip Events Conditions
12:16 AM 35.6 °F 29.9 °F 32.0 °F 87% 29.73 in 10.0 mi SW 6.9 mph - N/A   Overcast
12:36 AM 35.6 °F 28.6 °F 33.8 °F 93% 29.74 in 10.0 mi SW 9.2 mph 17.3 mph N/A   Overcast
12:56 AM 35.6 °F - 32.0 °F 87% 29.74 in 10.0 mi Calm Calm - N/A   Overcast
1:16 AM 35.6 °F 32.8 °F 32.0 °F 87% 29.75 in 10.0 mi East 3.5 mph - N/A   Overcast
1:36 AM 35.6 °F 32.8 °F 32.0 °F 87% 29.77 in 10.0 mi ESE 3.5 mph - N/A   Overcast
1:56 AM 35.6 °F - 33.8 °F 93% 29.78 in 10.0 mi Calm Calm - N/A   Overcast
2:16 AM 35.6 °F 29.9 °F 30.2 °F 81% 29.79 in 10.0 mi SW 6.9 mph - N/A   Overcast
2:36 AM 35.6 °F 31.7 °F 30.2 °F 81% 29.80 in 10.0 mi SSW 4.6 mph - N/A   Mostly Cloudy
2:56 AM 37.4 °F - 30.2 °F 75% 29.81 in 10.0 mi Calm Calm - N/A   Overcast
3:16 AM 35.6 °F 29.9 °F 30.2 °F 81% 29.81 in 10.0 mi WSW 6.9 mph - N/A   Mostly Cloudy
3:36 AM 35.6 °F 32.8 °F 30.2 °F 81% 29.82 in 10.0 mi South 3.5 mph - N/A   Mostly Cloudy
3:56 AM 35.6 °F 32.8 °F 30.2 °F 81% 29.84 in 10.0 mi East 3.5 mph - N/A   Scattered Clouds
4:16 AM 35.6 °F - 30.2 °F 81% 29.85 in 10.0 mi Calm Calm - N/A   Mostly Cloudy
4:36 AM 37.4 °F 33.8 °F 30.2 °F 75% 29.86 in 10.0 mi SSW 4.6 mph - N/A   Overcast
4:56 AM 35.6 °F 32.8 °F 28.4 °F 75% 29.86 in 10.0 mi WSW 3.5 mph - N/A   Scattered Clouds
5:16 AM 35.6 °F - 28.4 °F 75% 29.88 in 10.0 mi Calm Calm - N/A   Clear
5:36 AM 33.8 °F - 28.4 °F 81% 29.89 in 10.0 mi Calm Calm - N/A   Partly Cloudy
5:56 AM 32.0 °F 28.7 °F 28.4 °F 87% 29.90 in 10.0 mi East 3.5 mph - N/A   Partly Cloudy
6:16 AM 33.8 °F - 28.4 °F 81% 29.91 in 10.0 mi Calm Calm - N/A   Mostly Cloudy
6:36 AM 35.6 °F - 30.2 °F 81% 29.92 in 10.0 mi Calm Calm - N/A   Overcast
6:56 AM 37.4 °F 34.9 °F 30.2 °F 75% 29.93 in 10.0 mi SSW 3.5 mph - N/A   Overcast
7:16 AM 37.4 °F - 30.2 °F 75% 29.94 in 10.0 mi Calm Calm - N/A   Overcast
7:36 AM 37.4 °F 34.9 °F 30.2 °F 75% 29.95 in 10.0 mi SW 3.5 mph - N/A   Overcast
7:56 AM 37.4 °F 31.4 °F 30.2 °F 75% 29.96 in 10.0 mi SW 8.1 mph - N/A   Overcast
8:16 AM 37.4 °F 34.9 °F 32.0 °F 81% 29.97 in 10.0 mi SSW 3.5 mph - N/A   Overcast
8:36 AM 35.6 °F 31.7 °F 30.2 °F 81% 29.99 in 10.0 mi SW 4.6 mph - N/A   Mostly Cloudy
8:56 AM 35.6 °F - 30.2 °F 81% 30.00 in 10.0 mi Calm Calm - N/A   Mostly Cloudy
9:16 AM 35.6 °F - 30.2 °F 81% 30.01 in 10.0 mi Calm Calm - N/A   Mostly Cloudy
9:36 AM 33.8 °F - 30.2 °F 87% 30.02 in 10.0 mi Calm Calm - N/A   Mostly Cloudy
9:56 AM 33.8 °F - 30.2 °F 87% 30.04 in 10.0 mi Calm Calm - N/A   Overcast
10:16 AM 33.8 °F - 30.2 °F 87% 30.05 in 10.0 mi Calm Calm - N/A   Overcast
10:36 AM 33.8 °F - 30.2 °F 87% 30.06 in 10.0 mi Calm Calm - N/A   Overcast
10:56 AM 35.6 °F - 33.8 °F 93% 30.07 in 10.0 mi Calm Calm - N/A   Overcast
11:16 AM 35.6 °F - 33.8 °F 93% 30.08 in 10.0 mi Calm Calm - N/A   Overcast
11:36 AM 37.4 °F 33.8 °F 33.8 °F 87% 30.08 in 10.0 mi ESE 4.6 mph - N/A   Overcast
11:56 AM 37.4 °F 34.9 °F 33.8 °F 87% 30.10 in 10.0 mi ESE 3.5 mph - N/A   Overcast
12:16 PM 37.4 °F 34.9 °F 33.8 °F 87% 30.11 in 10.0 mi ESE 3.5 mph - N/A   Overcast
12:36 PM 37.4 °F - 33.8 °F 87% 30.12 in 10.0 mi Calm Calm - N/A   Overcast
12:56 PM 37.4 °F 32.8 °F 33.8 °F 87% 30.13 in 10.0 mi SE 5.8 mph - N/A   Overcast
1:16 PM 37.4 °F 34.9 °F 33.8 °F 87% 30.13 in 10.0 mi SSE 3.5 mph - N/A   Overcast
1:36 PM 37.4 °F 33.8 °F 33.8 °F 87% 30.15 in 10.0 mi SSE 4.6 mph - N/A   Overcast
1:56 PM 37.4 °F 34.9 °F 33.8 °F 87% 30.16 in 10.0 mi SE 3.5 mph - N/A   Overcast
2:16 PM 37.4 °F - 33.8 °F 87% 30.16 in 10.0 mi Calm Calm - N/A   Overcast
2:36 PM 37.4 °F - 33.8 °F 87% 30.17 in 10.0 mi Calm Calm - N/A   Overcast
2:56 PM 37.4 °F - 33.8 °F 87% 30.18 in 10.0 mi Calm Calm - N/A   Overcast
3:16 PM 35.6 °F - 33.8 °F 93% 30.18 in 10.0 mi Calm Calm - N/A   Scattered Clouds
3:36 PM 35.6 °F - 32.0 °F 87% 30.19 in 10.0 mi Calm Calm - N/A   Clear
3:56 PM 33.8 °F 30.8 °F 32.0 °F 93% 30.19 in 10.0 mi NNW 3.5 mph - N/A   Clear
4:16 PM 33.8 °F 30.8 °F 30.2 °F 87% 30.20 in 10.0 mi NNW 3.5 mph - N/A   Clear
4:36 PM 32.0 °F - 28.4 °F 87% 30.20 in 10.0 mi Calm Calm - N/A   Partly Cloudy
4:56 PM 30.2 °F - 28.4 °F 93% 30.21 in 9.0 mi Calm Calm - N/A   Scattered Clouds
5:16 PM 30.2 °F - 28.4 °F 93% 30.22 in 1.5 mi Calm Calm - N/A   Overcast
5:36 PM 30.2 °F - 28.4 °F 93% 30.22 in 1.8 mi Calm Calm - N/A   Overcast
5:56 PM 30.2 °F - 28.4 °F 93% 30.23 in 1.8 mi Calm Calm - N/A   Scattered Clouds
6:16 PM 30.2 °F - 28.4 °F 93% 30.22 in 1.0 mi Calm Calm - N/A   Clear
6:36 PM 28.4 °F - 26.6 °F 93% 30.23 in 1.8 mi Calm Calm - N/A   Mostly Cloudy
6:56 PM 28.4 °F - 26.6 °F 93% 30.23 in 10.0 mi Calm Calm - N/A   Partly Cloudy
7:16 PM 28.4 °F - 26.6 °F 93% 30.24 in 9.0 mi Calm Calm - N/A   Clear
7:36 PM 28.4 °F - 26.6 °F 93% 30.24 in 5.0 mi Calm Calm - N/A   Clear
7:56 PM 28.4 °F - 26.6 °F 93% 30.24 in 1.0 mi Calm Calm - N/A   Mostly Cloudy
8:16 PM 26.6 °F - 24.8 °F 93% 30.24 in 1.8 mi Calm Calm - N/A   Scattered Clouds
8:36 PM 28.4 °F - 24.8 °F 86% 30.24 in 10.0 mi Calm Calm - N/A   Clear
8:56 PM 26.6 °F - 24.8 °F 93% 30.24 in 10.0 mi Calm Calm - N/A   Clear
9:16 PM 26.6 °F - 24.8 °F 93% 30.25 in 3.0 mi Calm Calm - N/A   Scattered Clouds
9:36 PM 26.6 °F - 24.8 °F 93% 30.25 in 2.5 mi Calm Calm - N/A   Mostly Cloudy
9:56 PM 26.6 °F - 24.8 °F 93% 30.25 in 9.0 mi Calm Calm - N/A   Partly Cloudy
10:16 PM 26.6 °F - 24.8 °F 93% 30.25 in 10.0 mi Calm Calm - N/A   Clear
10:36 PM 26.6 °F - 24.8 °F 93% 30.25 in 2.5 mi Calm Calm - N/A   Clear
10:56 PM 26.6 °F - 24.8 °F 93% 30.25 in 10.0 mi Calm Calm - N/A   Clear
11:36 PM 24.8 °F - 23.0 °F 93% 30.26 in 10.0 mi Calm Calm - N/A   Clear
11:56 PM 24.8 °F - 21.2 °F 86% 30.26 in 10.0 mi Calm Calm - N/A   Clear